Time,TemperatureF,DewpointF,PressureIn,WindDirection,WindDirectionDegrees,WindSpeedMPH,WindSpeedGustMPH,Humidity,HourlyPrecipIn,Conditions,Clouds,dailyrainin,SoftwareType,DateUTC
2013-01-22 00:01:00,63.3,46.9,30.18,WNW,292,3.4,3.8,55,0.00,,---,0.00,VWS V14.01,2013-01-22 05:01:00,
2013-01-22 00:02:00,63.3,46.9,30.18,West,270,1.1,3.4,55,0.00,,---,0.00,VWS V14.01,2013-01-22 05:02:00,
2013-01-22 00:05:00,63.3,46.4,30.18,NW,315,1.1,1.3,54,0.00,,---,0.00,VWS V14.01,2013-01-22 05:05:00,
2013-01-22 00:10:00,63.1,46.7,30.18,NNE,22,3.1,3.1,55,0.00,,---,0.00,VWS V14.01,2013-01-22 05:10:00,
2013-01-22 00:15:00,63.1,46.7,30.18,NNE,22,2.0,3.6,55,0.00,,---,0.00,VWS V14.01,2013-01-22 05:15:00,
2013-01-22 00:21:00,63.1,46.7,30.18,NNW,338,2.9,4.9,55,0.00,,---,0.00,VWS V14.01,2013-01-22 05:21:00,
2013-01-22 00:26:00,63.1,46.7,30.18,NNW,338,1.6,2.9,55,0.00,,---,0.00,VWS V14.01,2013-01-22 05:26:00,
2013-01-22 00:31:00,63.1,46.7,30.18,ENE,68,2.7,2.7,55,0.00,,---,0.00,VWS V14.01,2013-01-22 05:31:00,
2013-01-22 00:36:00,63.0,46.6,30.18,NNE,22,3.1,4.7,55,0.00,,---,0.00,VWS V14.01,2013-01-22 05:36:00,
2013-01-22 00:42:00,63.0,46.6,30.18,NNW,338,6.5,6.5,55,0.00,,---,0.00,VWS V14.01,2013-01-22 05:42:00,
2013-01-22 00:47:00,63.0,46.6,30.18,NNW,338,3.8,3.8,55,0.00,,---,0.00,VWS V14.01,2013-01-22 05:47:00,
2013-01-22 00:53:00,62.8,46.4,30.18,NNE,22,2.7,3.1,55,0.00,,---,0.00,VWS V14.01,2013-01-22 05:53:00,
2013-01-22 00:58:00,62.8,46.4,30.15,NW,315,3.4,4.9,55,0.00,,---,0.00,VWS V14.01,2013-01-22 05:58:00,
2013-01-22 01:05:00,62.8,46.4,30.15,NNW,338,2.2,2.2,55,0.00,,---,0.00,VWS V14.01,2013-01-22 06:05:00,
2013-01-22 01:12:00,62.8,46.4,30.15,NE,45,0.0,2.5,55,0.00,,---,0.00,VWS V14.01,2013-01-22 06:12:00,
2013-01-22 01:17:00,62.6,45.7,30.18,North,0,1.1,2.9,54,0.00,,---,0.00,VWS V14.01,2013-01-22 06:17:00,
2013-01-22 01:22:00,62.6,45.7,30.18,North,0,2.7,3.1,54,0.00,,---,0.00,VWS V14.01,2013-01-22 06:22:00,
2013-01-22 01:28:00,62.4,45.6,30.18,NNW,338,2.7,2.7,54,0.00,,---,0.00,VWS V14.01,2013-01-22 06:28:00,
2013-01-22 01:33:00,62.4,45.6,30.18,North,0,2.5,2.5,54,0.00,,---,0.00,VWS V14.01,2013-01-22 06:33:00,
2013-01-22 01:39:00,62.2,45.4,30.18,North,0,1.6,2.0,54,0.00,,---,0.00,VWS V14.01,2013-01-22 06:39:00,
2013-01-22 01:44:00,62.2,45.4,30.15,NNE,22,3.1,3.4,54,0.00,,---,0.00,VWS V14.01,2013-01-22 06:44:00,
2013-01-22 01:50:00,62.1,45.2,30.15,NE,45,2.7,6.5,54,0.00,,---,0.00,VWS V14.01,2013-01-22 06:50:00,
2013-01-22 01:56:00,62.1,45.7,30.15,NNW,338,0.9,4.3,55,0.00,,---,0.00,VWS V14.01,2013-01-22 06:56:00,
2013-01-22 02:01:00,61.9,45.5,30.15,NNE,22,2.5,2.5,55,0.00,,---,0.00,VWS V14.01,2013-01-22 07:01:00,
2013-01-22 02:07:00,61.9,45.5,30.15,NNE,22,2.5,3.1,55,0.00,,---,0.00,VWS V14.01,2013-01-22 07:07:00,
2013-01-22 02:13:00,61.9,45.5,30.15,North,0,2.0,2.0,55,0.00,,---,0.00,VWS V14.01,2013-01-22 07:13:00,
2013-01-22 02:18:00,61.7,45.4,30.15,NNW,338,0.0,3.1,55,0.00,,---,0.00,VWS V14.01,2013-01-22 07:18:00,
2013-01-22 02:24:00,61.7,45.4,30.15,NNE,22,3.8,3.8,55,0.00,,---,0.00,VWS V14.01,2013-01-22 07:24:00,
2013-01-22 02:29:00,61.7,45.4,30.15,NNE,22,2.7,2.7,55,0.00,,---,0.00,VWS V14.01,2013-01-22 07:29:00,
2013-01-22 02:35:00,61.7,45.4,30.15,North,0,3.1,3.1,55,0.00,,---,0.00,VWS V14.01,2013-01-22 07:35:00,
2013-01-22 02:40:00,61.7,45.4,30.15,ENE,68,0.0,2.0,55,0.00,,---,0.00,VWS V14.01,2013-01-22 07:40:00,
2013-01-22 02:46:00,61.7,45.4,30.15,NNE,22,2.5,3.6,55,0.00,,---,0.00,VWS V14.01,2013-01-22 07:46:00,
2013-01-22 02:51:00,61.5,45.7,30.15,NNE,22,0.9,2.0,56,0.00,,---,0.00,VWS V14.01,2013-01-22 07:51:00,
2013-01-22 02:56:00,61.3,45.5,30.15,NE,45,2.9,2.9,56,0.00,,---,0.00,VWS V14.01,2013-01-22 07:56:00,
2013-01-22 03:01:00,61.3,45.5,30.15,NE,45,2.9,2.9,56,0.00,,---,0.00,VWS V14.01,2013-01-22 08:01:00,
2013-01-22 03:07:00,61.2,45.4,30.15,NNE,22,2.5,2.5,56,0.00,,---,0.00,VWS V14.01,2013-01-22 08:07:00,
2013-01-22 03:13:00,61.2,45.4,30.15,NNW,338,1.6,3.8,56,0.00,,---,0.00,VWS V14.01,2013-01-22 08:13:00,
2013-01-22 03:19:00,61.0,45.2,30.15,North,0,2.0,2.0,56,0.00,,---,0.00,VWS V14.01,2013-01-22 08:19:00,
2013-01-22 03:24:00,61.0,45.2,30.15,North,0,0.0,0.0,56,0.00,,---,0.00,VWS V14.01,2013-01-22 08:24:00,
2013-01-22 03:30:00,60.8,45.0,30.15,North,0,4.3,4.3,56,0.00,,---,0.00,VWS V14.01,2013-01-22 08:30:00,
2013-01-22 03:35:00,60.8,44.5,30.15,NE,45,1.6,1.6,55,0.00,,---,0.00,VWS V14.01,2013-01-22 08:35:00,
2013-01-22 03:40:00,60.6,44.4,30.15,North,0,0.0,1.3,55,0.00,,---,0.00,VWS V14.01,2013-01-22 08:40:00,
2013-01-22 03:45:00,60.4,44.2,30.15,NNE,22,2.2,2.2,55,0.00,,---,0.00,VWS V14.01,2013-01-22 08:45:00,
2013-01-22 03:51:00,60.4,44.2,30.15,North,0,1.3,2.7,55,0.00,,---,0.00,VWS V14.01,2013-01-22 08:51:00,
2013-01-22 03:56:00,60.3,44.0,30.15,North,0,1.3,1.3,55,0.00,,---,0.00,VWS V14.01,2013-01-22 08:56:00,
2013-01-22 04:03:00,60.3,44.0,30.15,WNW,292,1.3,2.5,55,0.00,,---,0.00,VWS V14.01,2013-01-22 09:03:00,
2013-01-22 04:08:00,60.1,43.9,30.15,North,0,1.1,1.6,55,0.00,,---,0.00,VWS V14.01,2013-01-22 09:08:00,
2013-01-22 04:13:00,60.1,43.9,30.15,NW,315,0.0,0.9,55,0.00,,---,0.00,VWS V14.01,2013-01-22 09:13:00,
2013-01-22 04:18:00,60.1,43.9,30.15,North,0,1.1,2.7,55,0.00,,---,0.00,VWS V14.01,2013-01-22 09:18:00,
2013-01-22 04:24:00,59.9,43.2,30.15,NE,45,0.9,2.5,54,0.00,,---,0.00,VWS V14.01,2013-01-22 09:24:00,
2013-01-22 04:30:00,59.9,43.2,30.15,ESE,112,1.1,1.3,54,0.00,,---,0.00,VWS V14.01,2013-01-22 09:30:00,
2013-01-22 04:35:00,59.7,43.1,30.15,North,0,1.6,3.4,54,0.00,,---,0.00,VWS V14.01,2013-01-22 09:35:00,
2013-01-22 04:41:00,59.7,43.1,30.15,North,0,1.6,2.0,54,0.00,,---,0.00,VWS V14.01,2013-01-22 09:41:00,
2013-01-22 04:46:00,59.5,42.4,30.15,North,0,2.2,2.7,53,0.00,,---,0.00,VWS V14.01,2013-01-22 09:46:00,
2013-01-22 04:52:00,59.5,42.4,30.15,North,0,1.3,4.0,53,0.00,,---,0.00,VWS V14.01,2013-01-22 09:52:00,
2013-01-22 04:58:00,59.5,41.9,30.15,NNW,338,1.1,4.9,52,0.00,,---,0.00,VWS V14.01,2013-01-22 09:58:00,
2013-01-22 05:03:00,59.5,41.9,30.15,North,0,1.6,2.9,52,0.00,,---,0.00,VWS V14.01,2013-01-22 10:03:00,
2013-01-22 05:09:00,59.4,41.2,30.15,NNE,22,2.5,2.7,51,0.00,,---,0.00,VWS V14.01,2013-01-22 10:09:00,
2013-01-22 05:15:00,59.4,41.2,30.15,NNW,338,3.8,3.8,51,0.00,,---,0.00,VWS V14.01,2013-01-22 10:15:00,
2013-01-22 05:20:00,59.4,41.2,30.15,NE,45,0.0,0.9,51,0.00,,---,0.00,VWS V14.01,2013-01-22 10:20:00,
2013-01-22 05:26:00,59.2,41.1,30.15,North,0,0.0,0.0,51,0.00,,---,0.00,VWS V14.01,2013-01-22 10:26:00,
2013-01-22 05:31:00,59.2,40.6,30.15,NNE,22,0.0,0.0,50,0.00,,---,0.00,VWS V14.01,2013-01-22 10:31:00,
2013-01-22 05:37:00,59.0,40.4,30.15,NNW,338,0.0,1.1,50,0.00,,---,0.00,VWS V14.01,2013-01-22 10:37:00,
2013-01-22 05:43:00,59.0,40.4,30.15,NNW,338,1.1,3.6,50,0.00,,---,0.00,VWS V14.01,2013-01-22 10:43:00,
2013-01-22 05:48:00,58.8,40.2,30.15,NNW,338,0.9,3.1,50,0.00,,---,0.00,VWS V14.01,2013-01-22 10:48:00,
2013-01-22 05:54:00,58.8,40.2,30.15,NE,45,0.9,2.2,50,0.00,,---,0.00,VWS V14.01,2013-01-22 10:54:00,
2013-01-22 05:59:00,58.6,40.1,30.15,ENE,68,1.3,2.5,50,0.00,,---,0.00,VWS V14.01,2013-01-22 10:59:00,
2013-01-22 06:05:00,58.6,40.1,30.18,North,0,4.7,5.8,50,0.00,,---,0.00,VWS V14.01,2013-01-22 11:05:00,
2013-01-22 06:10:00,58.6,40.1,30.18,NNW,338,1.1,2.2,50,0.00,,---,0.00,VWS V14.01,2013-01-22 11:10:00,
2013-01-22 06:16:00,58.6,40.1,30.18,NNE,22,1.6,1.6,50,0.00,,---,0.00,VWS V14.01,2013-01-22 11:16:00,
2013-01-22 06:21:00,58.5,39.9,30.18,NE,45,1.6,2.5,50,0.00,,---,0.00,VWS V14.01,2013-01-22 11:21:00,
2013-01-22 06:27:00,58.6,40.1,30.18,North,0,2.2,2.7,50,0.00,,---,0.00,VWS V14.01,2013-01-22 11:27:00,
2013-01-22 06:32:00,58.5,39.4,30.18,NW,315,1.6,1.6,49,0.00,,---,0.00,VWS V14.01,2013-01-22 11:32:00,
2013-01-22 06:38:00,58.5,39.4,30.18,NNW,338,4.0,4.0,49,0.00,,---,0.00,VWS V14.01,2013-01-22 11:38:00,
2013-01-22 06:43:00,58.5,39.4,30.18,North,0,1.3,2.0,49,0.00,,---,0.00,VWS V14.01,2013-01-22 11:43:00,
2013-01-22 06:49:00,58.3,39.2,30.18,NNW,338,1.3,3.8,49,0.00,,---,0.00,VWS V14.01,2013-01-22 11:49:00,
2013-01-22 06:54:00,58.3,39.2,30.18,NNE,22,2.9,2.9,49,0.00,,---,0.00,VWS V14.01,2013-01-22 11:54:00,
2013-01-22 06:59:00,58.1,39.1,30.21,NW,315,1.3,2.2,49,0.00,,---,0.00,VWS V14.01,2013-01-22 11:59:00,
2013-01-22 07:04:00,58.1,39.1,30.21,North,0,0.0,0.0,49,0.00,,---,0.00,VWS V14.01,2013-01-22 12:04:00,
2013-01-22 07:09:00,58.1,39.1,30.21,NE,45,0.0,0.0,49,0.00,,---,0.00,VWS V14.01,2013-01-22 12:09:00,
2013-01-22 07:15:00,57.9,38.9,30.21,North,0,0.0,0.0,49,0.00,,---,0.00,VWS V14.01,2013-01-22 12:15:00,
2013-01-22 07:20:00,57.9,38.9,30.21,North,0,0.0,0.0,49,0.00,,---,0.00,VWS V14.01,2013-01-22 12:20:00,
2013-01-22 07:27:00,57.9,39.4,30.21,NNE,22,0.0,0.0,50,0.00,,---,0.00,VWS V14.01,2013-01-22 12:27:00,
2013-01-22 07:32:00,57.9,39.4,30.21,North,0,0.9,1.1,50,0.00,,---,0.00,VWS V14.01,2013-01-22 12:32:00,
2013-01-22 07:37:00,57.9,39.4,30.21,NNW,338,0.0,2.0,50,0.00,,---,0.00,VWS V14.01,2013-01-22 12:37:00,
2013-01-22 07:43:00,57.9,39.4,30.21,NNE,22,0.0,0.0,50,0.00,,---,0.00,VWS V14.01,2013-01-22 12:43:00,
2013-01-22 07:48:00,57.9,39.4,30.21,NNW,338,0.0,0.9,50,0.00,,---,0.00,VWS V14.01,2013-01-22 12:48:00,
2013-01-22 07:54:00,58.1,39.6,30.21,East,90,0.0,0.0,50,0.00,,---,0.00,VWS V14.01,2013-01-22 12:54:00,
2013-01-22 08:00:00,58.1,39.6,30.21,NNW,338,1.6,2.2,50,0.00,,---,0.00,VWS V14.01,2013-01-22 13:00:00,
2013-01-22 08:05:00,58.3,39.7,30.21,NW,315,0.0,2.0,50,0.00,,---,0.00,VWS V14.01,2013-01-22 13:05:00,
2013-01-22 08:11:00,58.5,39.9,30.21,NNE,22,2.7,2.7,50,0.00,,---,0.00,VWS V14.01,2013-01-22 13:11:00,
2013-01-22 08:17:00,58.6,40.1,30.24,North,0,1.3,1.3,50,0.00,,---,0.00,VWS V14.01,2013-01-22 13:17:00,
2013-01-22 08:22:00,58.8,39.7,30.24,North,0,2.5,3.1,49,0.00,,---,0.00,VWS V14.01,2013-01-22 13:22:00,
2013-01-22 08:27:00,59.0,39.9,30.24,North,0,1.1,4.0,49,0.00,,---,0.00,VWS V14.01,2013-01-22 13:27:00,
2013-01-22 08:33:00,59.4,39.7,30.24,NNW,338,2.5,3.4,48,0.00,,---,0.00,VWS V14.01,2013-01-22 13:33:00,
2013-01-22 08:40:00,59.5,39.8,30.24,NNW,338,3.6,6.9,48,0.00,,---,0.00,VWS V14.01,2013-01-22 13:40:00,
2013-01-22 08:47:00,59.7,40.0,30.24,NW,315,2.9,2.9,48,0.00,,---,0.00,VWS V14.01,2013-01-22 13:47:00,
2013-01-22 08:53:00,60.3,40.5,30.24,NNE,22,2.7,2.9,48,0.00,,---,0.00,VWS V14.01,2013-01-22 13:53:00,
2013-01-22 08:58:00,60.4,40.1,30.24,NE,45,2.0,6.3,47,0.00,,---,0.00,VWS V14.01,2013-01-22 13:58:00,
2013-01-22 09:04:00,60.8,39.9,30.24,North,0,6.5,6.5,46,0.00,,---,0.00,VWS V14.01,2013-01-22 14:04:00,
2013-01-22 09:10:00,61.0,40.1,30.24,NNE,22,0.9,2.9,46,0.00,,---,0.00,VWS V14.01,2013-01-22 14:10:00,
2013-01-22 09:15:00,61.0,39.5,30.24,NNE,22,3.8,7.2,45,0.00,,---,0.00,VWS V14.01,2013-01-22 14:15:00,
2013-01-22 09:21:00,61.0,39.5,30.24,ENE,68,2.9,4.7,45,0.00,,---,0.00,VWS V14.01,2013-01-22 14:21:00,
2013-01-22 09:27:00,61.2,39.7,30.24,NNE,22,2.9,5.6,45,0.00,,---,0.00,VWS V14.01,2013-01-22 14:27:00,
2013-01-22 09:32:00,61.3,39.8,30.27,NE,45,2.9,7.2,45,0.00,,---,0.00,VWS V14.01,2013-01-22 14:32:00,
2013-01-22 09:38:00,61.3,39.8,30.27,North,0,1.6,3.4,45,0.00,,---,0.00,VWS V14.01,2013-01-22 14:38:00,
2013-01-22 09:43:00,61.7,40.2,30.27,NNW,338,4.9,4.9,45,0.00,,---,0.00,VWS V14.01,2013-01-22 14:43:00,
2013-01-22 09:49:00,61.9,40.3,30.27,ESE,112,2.5,4.9,45,0.00,,---,0.00,VWS V14.01,2013-01-22 14:49:00,
2013-01-22 09:55:00,62.2,40.1,30.27,North,0,3.4,7.6,44,0.00,,---,0.00,VWS V14.01,2013-01-22 14:55:00,
2013-01-22 10:00:00,62.4,40.2,30.27,NW,315,2.0,4.9,44,0.00,,---,0.00,VWS V14.01,2013-01-22 15:00:00,
2013-01-22 10:06:00,63.1,40.3,30.27,NNE,22,5.8,7.2,43,0.00,,---,0.00,VWS V14.01,2013-01-22 15:06:00,
2013-01-22 10:11:00,63.3,40.5,30.27,NNE,22,4.3,5.6,43,0.00,,---,0.00,VWS V14.01,2013-01-22 15:11:00,
2013-01-22 10:17:00,63.9,40.3,30.27,North,0,2.7,5.4,42,0.00,,---,0.00,VWS V14.01,2013-01-22 15:17:00,
2013-01-22 10:22:00,64.2,40.7,30.27,ENE,68,4.9,10.7,42,0.00,,---,0.00,VWS V14.01,2013-01-22 15:22:00,
2013-01-22 10:28:00,64.6,39.7,30.27,NNE,22,6.3,8.7,40,0.00,,---,0.00,VWS V14.01,2013-01-22 15:28:00,
2013-01-22 10:34:00,65.1,40.2,30.27,North,0,7.2,7.2,40,0.00,,---,0.00,VWS V14.01,2013-01-22 15:34:00,
2013-01-22 10:39:00,65.8,40.9,30.27,WNW,292,5.6,7.4,40,0.00,,---,0.00,VWS V14.01,2013-01-22 15:39:00,
2013-01-22 10:45:00,66.6,40.2,30.27,NNW,338,2.5,5.8,38,0.00,,---,0.00,VWS V14.01,2013-01-22 15:45:00,
2013-01-22 10:50:00,67.1,40.7,30.27,NNW,338,2.0,5.4,38,0.00,,---,0.00,VWS V14.01,2013-01-22 15:50:00,
2013-01-22 10:55:00,67.6,40.5,30.27,North,0,3.8,6.3,37,0.00,,---,0.00,VWS V14.01,2013-01-22 15:55:00,
2013-01-22 11:01:00,67.8,39.9,30.27,SSE,158,6.5,7.2,36,0.00,,---,0.00,VWS V14.01,2013-01-22 16:01:00,
2013-01-22 11:06:00,67.8,39.9,30.27,North,0,5.4,5.8,36,0.00,,---,0.00,VWS V14.01,2013-01-22 16:06:00,
2013-01-22 11:12:00,67.6,39.0,30.27,ENE,68,2.7,3.1,35,0.00,,---,0.00,VWS V14.01,2013-01-22 16:12:00,
2013-01-22 11:18:00,67.6,39.0,30.27,North,0,2.7,3.1,35,0.00,,---,0.00,VWS V14.01,2013-01-22 16:18:00,
2013-01-22 11:23:00,68.2,39.5,30.27,North,0,8.7,8.7,35,0.00,,---,0.00,VWS V14.01,2013-01-22 16:23:00,
2013-01-22 11:28:00,68.7,39.2,30.27,NW,315,2.7,2.7,34,0.00,,---,0.00,VWS V14.01,2013-01-22 16:28:00,
2013-01-22 11:34:00,68.9,39.4,30.27,NNW,338,3.6,8.7,34,0.00,,---,0.00,VWS V14.01,2013-01-22 16:34:00,
2013-01-22 11:39:00,68.9,39.4,30.27,NNW,338,3.1,6.3,34,0.00,,---,0.00,VWS V14.01,2013-01-22 16:39:00,
2013-01-22 11:44:00,68.9,39.4,30.27,NNE,22,3.1,4.3,34,0.00,,---,0.00,VWS V14.01,2013-01-22 16:44:00,
2013-01-22 11:49:00,69.1,38.8,30.27,NNE,22,4.3,6.0,33,0.00,,---,0.00,VWS V14.01,2013-01-22 16:49:00,
2013-01-22 11:55:00,69.6,39.3,30.27,ENE,68,5.4,13.2,33,0.00,,---,0.00,VWS V14.01,2013-01-22 16:55:00,
2013-01-22 12:00:00,70.0,39.6,30.27,North,0,7.4,8.1,33,0.00,,---,0.00,VWS V14.01,2013-01-22 17:00:00,
2013-01-22 12:06:00,70.2,39.0,30.27,East,90,5.8,5.8,32,0.00,,---,0.00,VWS V14.01,2013-01-22 17:06:00,
2013-01-22 12:12:00,69.8,38.6,30.27,WNW,292,13.0,13.0,32,0.00,,---,0.00,VWS V14.01,2013-01-22 17:12:00,
2013-01-22 12:17:00,69.3,38.2,30.27,NE,45,4.0,4.7,32,0.00,,---,0.00,VWS V14.01,2013-01-22 17:17:00,
2013-01-22 12:23:00,68.9,37.8,30.27,NNE,22,4.3,7.6,32,0.00,,---,0.00,VWS V14.01,2013-01-22 17:23:00,
2013-01-22 12:28:00,68.7,37.7,30.27,NE,45,3.6,5.6,32,0.00,,---,0.00,VWS V14.01,2013-01-22 17:28:00,
2013-01-22 12:33:00,68.5,37.5,30.27,NNE,22,2.9,7.6,32,0.00,,---,0.00,VWS V14.01,2013-01-22 17:33:00,
2013-01-22 12:38:00,68.2,37.2,30.27,North,0,3.8,8.5,32,0.00,,---,0.00,VWS V14.01,2013-01-22 17:38:00,
2013-01-22 12:44:00,68.2,37.2,30.27,NNE,22,4.3,4.3,32,0.00,,---,0.00,VWS V14.01,2013-01-22 17:44:00,
2013-01-22 12:50:00,68.2,37.2,30.27,NNE,22,2.9,3.4,32,0.00,,---,0.00,VWS V14.01,2013-01-22 17:50:00,
2013-01-22 12:55:00,68.2,37.2,30.27,NNW,338,3.4,6.3,32,0.00,,---,0.00,VWS V14.01,2013-01-22 17:55:00,
2013-01-22 13:01:00,68.2,37.2,30.27,NW,315,3.8,3.8,32,0.00,,---,0.00,VWS V14.01,2013-01-22 18:01:00,
2013-01-22 13:07:00,68.2,37.2,30.27,North,0,0.9,4.3,32,0.00,,---,0.00,VWS V14.01,2013-01-22 18:07:00,
2013-01-22 13:12:00,68.2,37.2,30.27,NE,45,4.9,5.4,32,0.00,,---,0.00,VWS V14.01,2013-01-22 18:12:00,
2013-01-22 13:18:00,68.5,37.5,30.27,North,0,3.8,4.3,32,0.00,,---,0.00,VWS V14.01,2013-01-22 18:18:00,
2013-01-22 13:23:00,68.9,37.8,30.27,NW,315,3.8,3.8,32,0.00,,---,0.00,VWS V14.01,2013-01-22 18:23:00,
2013-01-22 13:29:00,69.6,38.5,30.24,NNE,22,2.0,2.9,32,0.00,,---,0.00,VWS V14.01,2013-01-22 18:29:00,
2013-01-22 13:34:00,69.8,37.0,30.24,NNE,22,1.3,3.4,30,0.00,,---,0.00,VWS V14.01,2013-01-22 18:34:00,
2013-01-22 13:40:00,69.6,36.8,30.24,North,0,3.1,3.1,30,0.00,,---,0.00,VWS V14.01,2013-01-22 18:40:00,
2013-01-22 13:45:00,69.4,36.7,30.24,NNW,338,2.7,2.9,30,0.00,,---,0.00,VWS V14.01,2013-01-22 18:45:00,
2013-01-22 13:51:00,69.6,36.8,30.24,NNW,338,2.7,3.4,30,0.00,,---,0.00,VWS V14.01,2013-01-22 18:51:00,
2013-01-22 13:57:00,69.6,36.8,30.24,NNW,338,1.3,1.3,30,0.00,,---,0.00,VWS V14.01,2013-01-22 18:57:00,
2013-01-22 14:02:00,69.6,36.0,30.24,NNW,338,3.4,3.4,29,0.00,,---,0.00,VWS V14.01,2013-01-22 19:02:00,
2013-01-22 14:07:00,69.6,35.1,30.24,NNE,22,3.4,8.7,28,0.00,,---,0.00,VWS V14.01,2013-01-22 19:07:00,
2013-01-22 14:12:00,69.4,35.0,30.24,NNW,338,6.0,7.8,28,0.00,,---,0.00,VWS V14.01,2013-01-22 19:12:00,
2013-01-22 14:18:00,69.4,35.0,30.24,ESE,112,2.0,2.7,28,0.00,,---,0.00,VWS V14.01,2013-01-22 19:18:00,
2013-01-22 14:24:00,69.3,34.8,30.24,WNW,292,0.0,3.4,28,0.00,,---,0.00,VWS V14.01,2013-01-22 19:24:00,
2013-01-22 14:29:00,69.4,35.0,30.24,ENE,68,2.7,3.1,28,0.00,,---,0.00,VWS V14.01,2013-01-22 19:29:00,
2013-01-22 14:35:00,69.3,34.8,30.24,ESE,112,6.3,6.3,28,0.00,,---,0.00,VWS V14.01,2013-01-22 19:35:00,
2013-01-22 14:40:00,69.1,34.6,30.24,North,0,4.7,5.8,28,0.00,,---,0.00,VWS V14.01,2013-01-22 19:40:00,
2013-01-22 14:46:00,69.1,34.6,30.24,NNW,338,3.4,9.2,28,0.00,,---,0.00,VWS V14.01,2013-01-22 19:46:00,
2013-01-22 14:51:00,69.1,34.6,30.24,NNW,338,0.9,3.6,28,0.00,,---,0.00,VWS V14.01,2013-01-22 19:51:00,
2013-01-22 14:57:00,69.1,34.6,30.24,NNW,338,0.0,2.0,28,0.00,,---,0.00,VWS V14.01,2013-01-22 19:57:00,
2013-01-22 15:02:00,69.1,34.6,30.27,NNW,338,3.1,3.1,28,0.00,,---,0.00,VWS V14.01,2013-01-22 20:02:00,
2013-01-22 15:08:00,69.1,33.7,30.27,NNE,22,2.2,6.5,27,0.00,,---,0.00,VWS V14.01,2013-01-22 20:08:00,
2013-01-22 15:14:00,69.1,33.7,30.24,ENE,68,4.0,4.0,27,0.00,,---,0.00,VWS V14.01,2013-01-22 20:14:00,
2013-01-22 15:19:00,69.1,33.7,30.24,North,0,2.5,4.7,27,0.00,,---,0.00,VWS V14.01,2013-01-22 20:19:00,
2013-01-22 15:25:00,69.1,32.8,30.24,East,90,1.3,3.1,26,0.00,,---,0.00,VWS V14.01,2013-01-22 20:25:00,
2013-01-22 15:30:00,68.9,32.6,30.24,North,0,1.3,2.2,26,0.00,,---,0.00,VWS V14.01,2013-01-22 20:30:00,
2013-01-22 15:36:00,68.9,32.6,30.24,NNW,338,3.4,3.4,26,0.00,,---,0.00,VWS V14.01,2013-01-22 20:36:00,
2013-01-22 15:41:00,68.9,32.6,30.24,NNW,338,2.5,3.1,26,0.00,,---,0.00,VWS V14.01,2013-01-22 20:41:00,
2013-01-22 15:47:00,68.9,32.6,30.24,North,0,5.6,6.5,26,0.00,,---,0.00,VWS V14.01,2013-01-22 20:47:00,
2013-01-22 15:52:00,68.9,31.7,30.24,NNE,22,3.8,5.8,25,0.00,,---,0.00,VWS V14.01,2013-01-22 20:52:00,
2013-01-22 15:57:00,68.7,31.5,30.24,NW,315,2.5,3.1,25,0.00,,---,0.00,VWS V14.01,2013-01-22 20:57:00,
2013-01-22 16:02:00,68.7,31.5,30.27,North,0,1.1,1.1,25,0.00,,---,0.00,VWS V14.01,2013-01-22 21:02:00,
2013-01-22 16:07:00,68.7,31.5,30.27,WNW,292,2.0,6.0,25,0.00,,---,0.00,VWS V14.01,2013-01-22 21:07:00,
2013-01-22 16:13:00,68.7,31.5,30.27,North,0,4.3,8.7,25,0.00,,---,0.00,VWS V14.01,2013-01-22 21:13:00,
2013-01-22 16:18:00,68.7,30.5,30.24,NE,45,2.0,5.6,24,0.00,,---,0.00,VWS V14.01,2013-01-22 21:18:00,
2013-01-22 16:23:00,68.7,30.5,30.24,ESE,112,4.3,6.5,24,0.00,,---,0.00,VWS V14.01,2013-01-22 21:23:00,
2013-01-22 16:29:00,68.5,30.4,30.27,NNW,338,2.9,6.3,24,0.00,,---,0.00,VWS V14.01,2013-01-22 21:29:00,
2013-01-22 16:35:00,68.5,30.4,30.27,ESE,112,0.0,1.6,24,0.00,,---,0.00,VWS V14.01,2013-01-22 21:35:00,
2013-01-22 16:40:00,68.4,30.2,30.27,ESE,112,1.1,3.4,24,0.00,,---,0.00,VWS V14.01,2013-01-22 21:40:00,
2013-01-22 16:45:00,68.2,30.0,30.27,North,0,4.0,4.0,24,0.00,,---,0.00,VWS V14.01,2013-01-22 21:45:00,
2013-01-22 16:50:00,68.2,30.0,30.27,East,90,1.1,1.1,24,0.00,,---,0.00,VWS V14.01,2013-01-22 21:50:00,
2013-01-22 16:55:00,68.0,29.9,30.27,North,0,3.1,6.0,24,0.00,,---,0.00,VWS V14.01,2013-01-22 21:55:00,
2013-01-22 17:01:00,67.8,29.7,30.27,North,0,5.8,5.8,24,0.00,,---,0.00,VWS V14.01,2013-01-22 22:01:00,
2013-01-22 17:06:00,67.6,29.6,30.27,WSW,248,2.9,2.9,24,0.00,,---,0.00,VWS V14.01,2013-01-22 22:06:00,
2013-01-22 17:12:00,67.5,29.4,30.27,ENE,68,2.9,3.6,24,0.00,,---,0.00,VWS V14.01,2013-01-22 22:12:00,
2013-01-22 17:17:00,67.3,29.3,30.27,East,90,3.1,3.1,24,0.00,,---,0.00,VWS V14.01,2013-01-22 22:17:00,
2013-01-22 17:23:00,67.1,29.1,30.27,NNE,22,1.6,2.5,24,0.00,,---,0.00,VWS V14.01,2013-01-22 22:23:00,
2013-01-22 17:28:00,66.9,29.0,30.27,East,90,1.3,7.4,24,0.00,,---,0.00,VWS V14.01,2013-01-22 22:28:00,
2013-01-22 17:33:00,66.7,28.8,30.27,ESE,112,3.1,4.3,24,0.00,,---,0.00,VWS V14.01,2013-01-22 22:33:00,
2013-01-22 17:39:00,66.6,28.7,30.27,NNW,338,1.6,4.9,24,0.00,,---,0.00,VWS V14.01,2013-01-22 22:39:00,
2013-01-22 17:45:00,66.2,28.4,30.30,NNE,22,5.4,6.5,24,0.00,,---,0.00,VWS V14.01,2013-01-22 22:45:00,
2013-01-22 17:50:00,66.0,28.2,30.30,North,0,2.0,2.7,24,0.00,,---,0.00,VWS V14.01,2013-01-22 22:50:00,
2013-01-22 17:56:00,65.8,28.1,30.30,North,0,0.9,0.9,24,0.00,,---,0.00,VWS V14.01,2013-01-22 22:56:00,
2013-01-22 18:01:00,65.7,27.9,30.27,North,0,3.1,3.8,24,0.00,,---,0.00,VWS V14.01,2013-01-22 23:01:00,
2013-01-22 18:07:00,65.5,27.8,30.27,North,0,2.7,3.6,24,0.00,,---,0.00,VWS V14.01,2013-01-22 23:07:00,
2013-01-22 18:13:00,65.3,27.6,30.30,NW,315,2.5,2.9,24,0.00,,---,0.00,VWS V14.01,2013-01-22 23:13:00,
2013-01-22 18:18:00,65.1,27.5,30.30,SE,135,1.3,1.6,24,0.00,,---,0.00,VWS V14.01,2013-01-22 23:18:00,
2013-01-22 18:24:00,64.8,28.1,30.30,NNE,22,2.5,3.4,25,0.00,,---,0.00,VWS V14.01,2013-01-22 23:24:00,
2013-01-22 18:30:00,64.6,28.0,30.30,East,90,0.0,4.0,25,0.00,,---,0.00,VWS V14.01,2013-01-22 23:30:00,
2013-01-22 18:35:00,64.4,27.8,30.30,NNE,22,1.1,2.9,25,0.00,,---,0.00,VWS V14.01,2013-01-22 23:35:00,
2013-01-22 18:43:00,64.2,27.7,30.30,NNW,338,2.9,2.9,25,0.00,,---,0.00,VWS V14.01,2013-01-22 23:43:00,
2013-01-22 18:48:00,64.2,27.7,30.30,NNW,338,1.1,5.6,25,0.00,,---,0.00,VWS V14.01,2013-01-22 23:48:00,
2013-01-22 18:53:00,64.2,27.7,30.30,North,0,1.1,2.9,25,0.00,,---,0.00,VWS V14.01,2013-01-22 23:53:00,
2013-01-22 18:59:00,64.2,27.7,30.30,North,0,1.6,2.5,25,0.00,,---,0.00,VWS V14.01,2013-01-22 23:59:00,
2013-01-22 19:05:00,63.3,26.9,30.30,NW,315,0.0,0.0,25,0.00,,---,0.00,VWS V14.01,2013-01-23 00:05:00,
2013-01-22 19:10:00,63.1,26.8,30.30,NW,315,2.0,2.9,25,0.00,,---,0.00,VWS V14.01,2013-01-23 00:10:00,
2013-01-22 19:15:00,63.0,26.6,30.33,NE,45,1.1,1.6,25,0.00,,---,0.00,VWS V14.01,2013-01-23 00:15:00,
2013-01-22 19:20:00,62.8,26.5,30.33,North,0,0.0,2.2,25,0.00,,---,0.00,VWS V14.01,2013-01-23 00:20:00,
2013-01-22 19:26:00,62.6,26.3,30.33,NNW,338,1.3,4.7,25,0.00,,---,0.00,VWS V14.01,2013-01-23 00:26:00,
2013-01-22 19:31:00,62.4,27.1,30.33,North,0,2.7,2.9,26,0.00,,---,0.00,VWS V14.01,2013-01-23 00:31:00,
2013-01-22 19:37:00,62.2,27.0,30.33,East,90,2.0,2.7,26,0.00,,---,0.00,VWS V14.01,2013-01-23 00:37:00,
2013-01-22 19:42:00,61.9,26.6,30.33,North,0,3.6,3.6,26,0.00,,---,0.00,VWS V14.01,2013-01-23 00:42:00,
2013-01-22 19:48:00,61.7,26.5,30.33,North,0,0.0,1.1,26,0.00,,---,0.00,VWS V14.01,2013-01-23 00:48:00,
2013-01-22 19:54:00,61.7,26.5,30.33,North,0,0.0,0.0,26,0.00,,---,0.00,VWS V14.01,2013-01-23 00:54:00,
2013-01-22 19:59:00,61.3,26.2,30.33,NNE,22,0.9,0.9,26,0.00,,---,0.00,VWS V14.01,2013-01-23 00:59:00,
2013-01-22 20:04:00,61.2,26.0,30.33,NNE,22,2.2,2.2,26,0.00,,---,0.00,VWS V14.01,2013-01-23 01:04:00,
2013-01-22 20:09:00,61.0,25.9,30.33,North,0,0.0,2.5,26,0.00,,---,0.00,VWS V14.01,2013-01-23 01:09:00,
2013-01-22 20:15:00,60.8,25.7,30.33,North,0,1.3,1.3,26,0.00,,---,0.00,VWS V14.01,2013-01-23 01:15:00,
2013-01-22 20:20:00,60.4,26.3,30.33,NNE,22,0.0,0.0,27,0.00,,---,0.00,VWS V14.01,2013-01-23 01:20:00,
2013-01-22 20:27:00,60.3,26.2,30.33,NE,45,0.0,1.6,27,0.00,,---,0.00,VWS V14.01,2013-01-23 01:27:00,
2013-01-22 20:33:00,60.3,26.2,30.33,WNW,292,0.0,0.0,27,0.00,,---,0.00,VWS V14.01,2013-01-23 01:33:00,
2013-01-22 20:38:00,59.9,25.9,30.33,NNE,22,0.0,2.5,27,0.00,,---,0.00,VWS V14.01,2013-01-23 01:38:00,
2013-01-22 20:43:00,59.9,25.9,30.33,East,90,0.0,0.0,27,0.00,,---,0.00,VWS V14.01,2013-01-23 01:43:00,
2013-01-22 20:49:00,59.7,25.7,30.33,NNE,22,0.0,0.9,27,0.00,,---,0.00,VWS V14.01,2013-01-23 01:49:00,
2013-01-22 20:54:00,59.5,26.4,30.33,WNW,292,0.0,0.0,28,0.00,,---,0.00,VWS V14.01,2013-01-23 01:54:00,
2013-01-22 20:59:00,59.4,26.3,30.33,North,0,0.0,0.0,28,0.00,,---,0.00,VWS V14.01,2013-01-23 01:59:00,
2013-01-22 21:05:00,59.4,26.3,30.33,North,0,0.0,0.0,28,0.00,,---,0.00,VWS V14.01,2013-01-23 02:05:00,
2013-01-22 21:11:00,59.2,26.1,30.33,North,0,1.6,2.5,28,0.00,,---,0.00,VWS V14.01,2013-01-23 02:11:00,
2013-01-22 21:16:00,59.0,26.0,30.33,North,0,0.0,0.0,28,0.00,,---,0.00,VWS V14.01,2013-01-23 02:16:00,
2013-01-22 21:22:00,59.0,26.0,30.33,NNE,22,0.9,0.9,28,0.00,,---,0.00,VWS V14.01,2013-01-23 02:22:00,
2013-01-22 21:27:00,58.8,26.6,30.33,NW,315,0.0,1.1,29,0.00,,---,0.00,VWS V14.01,2013-01-23 02:27:00,
2013-01-22 21:32:00,58.8,26.6,30.33,NW,315,0.0,0.0,29,0.00,,---,0.00,VWS V14.01,2013-01-23 02:32:00,
2013-01-22 21:38:00,58.6,26.5,30.33,NW,315,0.0,0.0,29,0.00,,---,0.00,VWS V14.01,2013-01-23 02:38:00,
2013-01-22 21:44:00,58.5,26.3,30.33,North,0,0.0,0.0,29,0.00,,---,0.00,VWS V14.01,2013-01-23 02:44:00,
2013-01-22 21:51:00,58.5,27.2,30.33,NNE,22,0.0,1.6,30,0.00,,---,0.00,VWS V14.01,2013-01-23 02:51:00,
2013-01-22 21:56:00,58.3,27.0,30.33,ESE,112,0.0,0.0,30,0.00,,---,0.00,VWS V14.01,2013-01-23 02:56:00,
2013-01-22 22:03:00,58.3,27.0,30.33,North,0,0.0,0.0,30,0.00,,---,0.00,VWS V14.01,2013-01-23 03:03:00,
2013-01-22 22:08:00,58.1,27.6,30.33,NNE,22,0.0,0.0,31,0.00,,---,0.00,VWS V14.01,2013-01-23 03:08:00,
2013-01-22 22:14:00,58.1,27.6,30.33,NE,45,0.0,0.0,31,0.00,,---,0.00,VWS V14.01,2013-01-23 03:14:00,
2013-01-22 22:20:00,57.9,27.5,30.33,North,0,0.0,0.0,31,0.00,,---,0.00,VWS V14.01,2013-01-23 03:20:00,
2013-01-22 22:25:00,57.9,28.3,30.33,ESE,112,0.0,0.0,32,0.00,,---,0.00,VWS V14.01,2013-01-23 03:25:00,
2013-01-22 22:30:00,57.9,28.3,30.33,East,90,0.0,0.0,32,0.00,,---,0.00,VWS V14.01,2013-01-23 03:30:00,
2013-01-22 22:37:00,57.6,28.7,30.33,SE,135,1.1,1.3,33,0.00,,---,0.00,VWS V14.01,2013-01-23 03:37:00,
2013-01-22 22:42:00,57.6,28.7,30.33,ENE,68,0.0,0.0,33,0.00,,---,0.00,VWS V14.01,2013-01-23 03:42:00,
2013-01-22 22:47:00,57.4,29.3,30.33,ENE,68,0.0,0.0,34,0.00,,---,0.00,VWS V14.01,2013-01-23 03:47:00,
2013-01-22 22:53:00,57.2,29.1,30.33,NE,45,0.0,0.0,34,0.00,,---,0.00,VWS V14.01,2013-01-23 03:53:00,
2013-01-22 22:59:00,57.0,29.7,30.33,NNW,338,0.0,0.0,35,0.00,,---,0.00,VWS V14.01,2013-01-23 03:59:00,
2013-01-22 23:04:00,56.8,29.5,30.33,NNE,22,0.0,0.0,35,0.00,,---,0.00,VWS V14.01,2013-01-23 04:04:00,
2013-01-22 23:10:00,56.7,29.3,30.33,NW,315,0.0,0.0,35,0.00,,---,0.00,VWS V14.01,2013-01-23 04:10:00,
2013-01-22 23:16:00,56.7,29.3,30.33,NW,315,0.0,0.0,35,0.00,,---,0.00,VWS V14.01,2013-01-23 04:16:00,
2013-01-22 23:21:00,56.5,29.2,30.33,North,0,0.0,0.0,35,0.00,,---,0.00,VWS V14.01,2013-01-23 04:21:00,
2013-01-22 23:26:00,56.3,29.0,30.33,WNW,292,0.0,0.0,35,0.00,,---,0.00,VWS V14.01,2013-01-23 04:26:00,
2013-01-22 23:31:00,56.3,29.0,30.33,North,0,0.0,0.0,35,0.00,,---,0.00,VWS V14.01,2013-01-23 04:31:00,
2013-01-22 23:37:00,56.3,29.7,30.33,NNW,338,0.0,0.0,36,0.00,,---,0.00,VWS V14.01,2013-01-23 04:37:00,
2013-01-22 23:44:00,56.1,29.5,30.33,East,90,0.0,0.0,36,0.00,,---,0.00,VWS V14.01,2013-01-23 04:44:00,
2013-01-22 23:49:00,55.9,29.4,30.33,North,0,0.0,0.0,36,0.00,,---,0.00,VWS V14.01,2013-01-23 04:49:00,
2013-01-22 23:54:00,55.9,29.4,30.33,NW,315,0.0,0.0,36,0.00,,---,0.00,VWS V14.01,2013-01-23 04:54:00,
2013-01-22 23:59:00,55.8,29.2,30.33,NE,45,1.1,1.1,36,0.00,,---,0.00,VWS V14.01,2013-01-23 04:59:00,